[[{"header":{"parameterUnit":"m.s-1","parameterCategory":1,"la1":30.2991,"la2":30.254,"lo1":-89.0895,"lo2":-89.0444,"dy":0.0017,"dx":0.0017,"nx":28,"ny":28,"refTime":"2025-04-10T21:00:00:Z","depth":0,"parameterNumber":2,"parameterNumberName":"U-component_of_WINDS"},"data":[0,0,0,0,0,0,0,0,0,0,0,0,0,0,0,0,0,0,0,0,0,0,0,0,0,0,0,0,0,0,0,0,0,0,0,0,0,0,0,0,0,0,0,0,0,0,0,0,0,0,0,0,0,0,0,0,0,0,2.5334,2.5335,0,2.5425,2.5426,2.5427,2.5445,2.5444,2.5443,2.5442,2.5537,2.554,2.5543,0,0,0,0,0,0,0,0,0,0,0,0,0,2.5177,2.518,2.5334,2.5335,2.5336,2.5425,2.5426,2.5427,2.5445,2.5444,2.5443,2.5442,2.5536,2.554,2.5543,0,0,0,0,0,0,0,0,0,0,0,0,0,2.5254,2.5181,2.5334,2.5355,2.5358,2.5425,2.5426,2.5428,2.5445,2.5444,2.5443,2.5442,2.5535,2.5539,2.5544,2.5595,0,0,2.5559,2.5561,0,0,0,0,0,0,0,0,2.525,2.526,2.5351,2.5354,2.5357,2.5422,2.5405,2.5484,2.5445,2.5412,2.5442,2.5441,2.55,2.5507,2.5527,2.56,2.5604,2.5559,2.5562,2.5564,2.5565,0,0,0,0,0,0,0,2.5245,2.5256,2.537,2.5352,2.5356,2.5361,2.5371,2.542,2.5461,2.5415,2.5416,2.5427,2.5501,2.5522,2.5529,2.5605,2.5559,2.5563,2.5566,2.5568,2.5727,2.5728,0,0,0,0,0,0,2.5235,2.5252,2.5367,2.5373,2.53,2.5365,2.5376,2.5403,2.546,2.5468,2.5428,2.5427,2.5514,2.5524,2.5532,2.5598,2.5564,2.5568,2.5571,2.5725,2.5727,2.5728,0,0,0,0,0,0,2.5232,2.5245,2.5363,2.5313,2.5328,2.5369,2.5399,2.5405,2.5426,2.547,2.5478,2.5441,2.5514,2.5526,2.558,2.5601,2.557,2.5575,2.5724,2.5726,2.5728,2.5728,0,0,0,0,0,0,2.5227,2.5244,2.5263,2.5313,2.5331,2.5409,2.54,2.5408,2.5434,2.5434,2.5485,2.5492,2.5514,2.5573,2.5585,2.5607,2.5579,2.5722,2.5725,2.5727,2.5726,2.573,2.5733,0,0,0,0,0,2.5222,2.5259,2.5264,2.5278,2.5356,2.541,2.542,2.5444,2.5436,2.5456,2.5485,2.5491,2.5597,2.5578,2.5592,2.5616,2.5721,2.5724,2.5727,2.5725,2.5729,2.5733,0,0,0,0,0,0,2.5211,2.5266,2.5272,2.5327,2.5364,2.5412,2.5439,2.5447,2.5487,2.5486,2.5514,2.5525,2.5578,2.5603,2.5581,2.567,2.5658,2.5664,2.5652,2.5657,2.566,2.5653,2.5583,0,0,0,0,0,2.5215,2.5254,2.53,2.5344,2.5362,2.5397,2.5422,2.5437,2.5476,2.5492,2.5524,2.5562,2.5605,2.5632,2.5673,2.573,2.5742,2.5753,2.5757,2.5759,2.5764,2.5798,2.5804,2.5738,2.5738,2.5738,0,0,2.5224,2.5259,2.5282,2.5343,2.5373,2.5414,2.541,2.5453,2.5483,2.5498,2.5552,2.5577,2.5622,2.5678,2.5704,2.57,2.5785,2.5763,2.5764,2.5768,2.5802,2.5808,2.5813,2.5741,2.574,2.574,0,0,2.5261,2.5291,2.5332,2.5362,2.5408,2.5431,2.5441,2.5489,2.5506,2.556,2.5573,2.561,2.5682,2.5714,2.5739,2.579,2.5798,2.5802,2.582,2.5852,2.5858,2.5862,2.5882,2.5888,2.5807,2.5807,2.5807,0,2.5266,2.5327,2.5352,2.5394,2.5422,2.5437,2.548,2.5508,2.5565,2.5584,2.5578,2.5669,2.57,2.5765,2.5777,2.5797,2.581,2.5797,2.5855,2.586,2.5865,2.5884,2.5891,2.5808,2.5808,2.5807,2.5807,0,2.5333,2.5375,2.5402,2.5457,2.5488,2.553,2.5561,2.5589,2.5602,2.5627,2.5683,2.572,2.577,2.5786,2.5799,2.5854,2.585,2.5849,2.5838,2.5871,2.5889,2.5897,2.5808,2.5808,2.5808,2.5808,0,0,2.5365,2.5434,2.5444,2.547,2.5522,2.5555,2.5599,2.5648,2.5672,2.5711,2.5749,2.581,2.581,2.5839,2.5856,2.5884,2.5924,2.588,2.5882,2.5888,2.5988,2.599,2.5997,2.5929,2.5931,2.5932,2.5985,0,2.541,2.5488,2.5512,2.5577,2.5617,2.5633,2.5672,2.5708,2.5732,2.5771,2.5797,2.5841,2.5837,2.5855,2.5883,2.5913,2.5945,2.5909,2.5966,2.5968,2.5956,2.6007,2.6008,2.6056,2.5992,2.5994,2.5994,0,2.5472,2.5513,2.5582,2.5631,2.5649,2.5682,2.573,2.5766,2.5809,2.5824,2.5857,2.5872,2.5919,2.5905,2.5972,2.5947,2.5972,2.5991,2.5993,2.6,2.5984,2.6017,2.6072,2.608,2.6006,2.6005,2.6004,0,2.5491,2.5563,2.5615,2.5636,2.5693,2.5717,2.5742,2.5784,2.5812,2.5854,2.5873,2.5919,2.5945,2.5981,2.6009,2.5996,2.6074,2.6061,2.6089,2.6089,2.6105,2.6104,2.6167,2.6119,2.6119,2.6119,2.6119,0,2.5539,2.5582,2.5624,2.5656,2.5704,2.5732,2.5779,2.5805,2.5842,2.588,2.5896,2.5932,2.5965,2.6006,2.6027,2.608,2.6091,2.6106,2.6112,2.6106,2.6104,2.6123,2.6121,2.6121,2.612,2.612,2.612,0,2.5569,2.5599,2.5656,2.5706,2.572,2.5754,2.5797,2.5829,2.5854,2.5902,2.5915,2.5954,2.6002,2.6033,2.6094,2.6109,2.6168,2.6171,2.6153,2.6156,2.6183,2.618,2.6261,2.6274,2.6216,2.6217,2.6217,0,2.5598,2.5631,2.5685,2.5712,2.5737,2.5779,2.5809,2.5837,2.5867,2.5919,2.5945,2.5994,2.6035,2.6112,2.6147,2.6194,2.62,2.6225,2.6208,2.6201,2.6203,2.6201,2.6205,2.6228,2.6229,2.6229,2.623,0,2.5648,2.5661,2.5702,2.5749,2.5784,2.5822,2.586,2.5881,2.5916,2.5949,2.5999,2.6031,2.6094,2.6144,2.6194,2.6221,2.6232,2.6235,2.6244,2.6239,2.6227,2.6236,2.6163,2.6233,2.6233,2.6232,2.6232,2.6232,2.5679,2.571,2.5753,2.5799,2.5831,2.5867,2.59,2.5929,2.5971,2.6024,2.6038,2.6091,2.6134,2.6204,2.6232,2.6274,2.6271,2.6283,2.6287,2.629,2.6291,2.622,2.6283,2.6283,2.6283,2.6283,2.6283,0,2.5731,2.5759,2.5801,2.5855,2.5891,2.5897,2.594,2.5971,2.6017,2.6056,2.6096,2.6154,2.6202,2.6241,2.6291,2.6318,2.6324,2.633,2.6329,2.6335,2.6291,2.6278,2.6324,2.6324,2.6324,2.6324,2.6324,2.6324,2.5762,2.5815,2.5834,2.5903,2.5932,2.5983,2.6008,2.6041,2.6073,2.6137,2.6177,2.6202,2.6241,2.6295,2.634,2.635,2.6368,2.6374,2.6385,2.6343,2.6338,2.6334,2.6323,2.6377,2.6377,2.6427,2.6427,2.6428]},{"header":{"parameterUnit":"m.s-1","parameterCategory":1,"la1":30.2991,"la2":30.254,"lo1":-89.0895,"lo2":-89.0444,"dy":0.0017,"dx":0.0017,"nx":28,"ny":28,"refTime":"2025-04-10T21:00:00:Z","depth":0,"parameterNumber":3,"parameterNumberName":"V-component_of_WINDS"},"data":[0,0,0,0,0,0,0,0,0,0,0,0,0,0,0,0,0,0,0,0,0,0,0,0,0,0,0,0,0,0,0,0,0,0,0,0,0,0,0,0,0,0,0,0,0,0,0,0,0,0,0,0,0,0,0,0,0,0,-0.4552,-0.4553,0,-0.464,-0.4641,-0.4642,-0.4674,-0.4673,-0.4673,-0.4673,-0.4764,-0.4766,-0.4769,0,0,0,0,0,0,0,0,0,0,0,0,0,-0.4413,-0.4416,-0.4552,-0.4553,-0.4554,-0.4639,-0.4641,-0.4642,-0.4674,-0.4673,-0.4673,-0.4673,-0.4763,-0.4766,-0.4769,0,0,0,0,0,0,0,0,0,0,0,0,0,-0.4485,-0.4417,-0.4552,-0.458,-0.4584,-0.4639,-0.4641,-0.4642,-0.4674,-0.4673,-0.4673,-0.4672,-0.4762,-0.4766,-0.477,-0.4804,0,0,-0.4782,-0.4784,0,0,0,0,0,0,0,0,-0.4481,-0.449,-0.4575,-0.4578,-0.4582,-0.4645,-0.4625,-0.4696,-0.4674,-0.4639,-0.4673,-0.4672,-0.4725,-0.4732,-0.4749,-0.4808,-0.4812,-0.4782,-0.4785,-0.4787,-0.4788,0,0,0,0,0,0,0,-0.4476,-0.4486,-0.4587,-0.4576,-0.4581,-0.4589,-0.4599,-0.4639,-0.4684,-0.4642,-0.4645,-0.4655,-0.4727,-0.4745,-0.4752,-0.4813,-0.4782,-0.4786,-0.4788,-0.479,-0.4906,-0.4907,0,0,0,0,0,0,-0.4466,-0.4482,-0.4584,-0.4589,-0.4529,-0.4592,-0.4603,-0.4625,-0.4683,-0.4692,-0.4655,-0.4656,-0.4739,-0.4747,-0.4755,-0.48,-0.4787,-0.479,-0.4793,-0.4906,-0.4906,-0.4907,0,0,0,0,0,0,-0.4463,-0.4474,-0.458,-0.4536,-0.455,-0.4595,-0.462,-0.4627,-0.4646,-0.4693,-0.4701,-0.4666,-0.4738,-0.4749,-0.4792,-0.4803,-0.4792,-0.4796,-0.4905,-0.4906,-0.4907,-0.4889,0,0,0,0,0,0,-0.4458,-0.4473,-0.4486,-0.4536,-0.4553,-0.4615,-0.4621,-0.4629,-0.4653,-0.4655,-0.4705,-0.4713,-0.4739,-0.4785,-0.4796,-0.4809,-0.4799,-0.4904,-0.4905,-0.4907,-0.4889,-0.4889,-0.489,0,0,0,0,0,-0.4453,-0.4477,-0.4486,-0.4499,-0.457,-0.4615,-0.4625,-0.4654,-0.4654,-0.4667,-0.4698,-0.4711,-0.48,-0.479,-0.4801,-0.4816,-0.4903,-0.4905,-0.4906,-0.4889,-0.4889,-0.489,0,0,0,0,0,0,-0.4427,-0.4484,-0.4495,-0.4536,-0.4571,-0.4621,-0.4639,-0.4653,-0.4689,-0.4689,-0.4724,-0.4736,-0.4776,-0.48,-0.4787,-0.4853,-0.4853,-0.4857,-0.4835,-0.4836,-0.4837,-0.483,-0.4802,0,0,0,0,0,-0.4426,-0.4458,-0.4507,-0.4538,-0.4555,-0.4594,-0.4615,-0.4634,-0.4672,-0.4687,-0.472,-0.4756,-0.4793,-0.4816,-0.4852,-0.4893,-0.4905,-0.4908,-0.4909,-0.4909,-0.4912,-0.4937,-0.494,-0.4912,-0.4912,-0.4912,0,0,-0.4425,-0.446,-0.4478,-0.4534,-0.4563,-0.4596,-0.4606,-0.464,-0.4666,-0.4692,-0.4734,-0.476,-0.4803,-0.4845,-0.4865,-0.4867,-0.4922,-0.4911,-0.4911,-0.4914,-0.4939,-0.4941,-0.4944,-0.4913,-0.4913,-0.4913,0,0,-0.4439,-0.4468,-0.4498,-0.4527,-0.4571,-0.4597,-0.4604,-0.4653,-0.4671,-0.4714,-0.4735,-0.4766,-0.4827,-0.4857,-0.488,-0.4907,-0.4922,-0.4918,-0.492,-0.4944,-0.4946,-0.4949,-0.4959,-0.4962,-0.4921,-0.4921,-0.4921,0,-0.4431,-0.4481,-0.4512,-0.4545,-0.457,-0.4595,-0.4627,-0.4654,-0.4707,-0.4724,-0.4725,-0.4803,-0.4834,-0.4884,-0.4891,-0.4908,-0.4918,-0.4912,-0.4944,-0.4946,-0.4948,-0.4959,-0.4963,-0.492,-0.492,-0.492,-0.492,0,-0.447,-0.4505,-0.4524,-0.4575,-0.4602,-0.4634,-0.467,-0.4694,-0.4711,-0.4737,-0.4782,-0.4819,-0.4864,-0.4877,-0.4894,-0.493,-0.493,-0.4937,-0.4938,-0.495,-0.496,-0.4965,-0.4919,-0.4919,-0.4919,-0.492,0,0,-0.447,-0.4538,-0.4545,-0.4569,-0.462,-0.4648,-0.4682,-0.4725,-0.4745,-0.4781,-0.4812,-0.4864,-0.487,-0.4897,-0.4918,-0.4939,-0.4959,-0.4943,-0.4945,-0.4946,-0.5002,-0.4997,-0.5001,-0.4969,-0.497,-0.497,-0.4999,0,-0.4491,-0.4553,-0.4581,-0.463,-0.4664,-0.4689,-0.4719,-0.4754,-0.4779,-0.4812,-0.484,-0.4877,-0.4883,-0.4899,-0.4921,-0.4952,-0.4971,-0.495,-0.4998,-0.4999,-0.4987,-0.5007,-0.5002,-0.5027,-0.5003,-0.5004,-0.5004,0,-0.4524,-0.4561,-0.4613,-0.4661,-0.4676,-0.4702,-0.4745,-0.4775,-0.4816,-0.4834,-0.4864,-0.4884,-0.4922,-0.492,-0.4973,-0.4958,-0.498,-0.4998,-0.5,-0.5006,-0.5003,-0.5014,-0.5035,-0.5039,-0.5011,-0.5011,-0.501,0,-0.452,-0.4582,-0.4622,-0.4641,-0.4698,-0.4716,-0.4741,-0.4781,-0.4806,-0.4844,-0.486,-0.4902,-0.4925,-0.4957,-0.4989,-0.4984,-0.5039,-0.504,-0.5056,-0.5055,-0.5066,-0.5065,-0.5092,-0.5079,-0.5079,-0.5079,-0.5079,0,-0.4541,-0.4572,-0.462,-0.4645,-0.4681,-0.4714,-0.4749,-0.4776,-0.4812,-0.4843,-0.4867,-0.4896,-0.4935,-0.4969,-0.4994,-0.5035,-0.5045,-0.5061,-0.5067,-0.5059,-0.5057,-0.5074,-0.5073,-0.508,-0.508,-0.5079,-0.5079,0,-0.4542,-0.4575,-0.4621,-0.4671,-0.4685,-0.4709,-0.4753,-0.4778,-0.4805,-0.4844,-0.4855,-0.4898,-0.4939,-0.4974,-0.5028,-0.5045,-0.5087,-0.5095,-0.5074,-0.5077,-0.5091,-0.509,-0.513,-0.5138,-0.5119,-0.5119,-0.5119,0,-0.4553,-0.4578,-0.4631,-0.4654,-0.4678,-0.4713,-0.4739,-0.4773,-0.4799,-0.4848,-0.4867,-0.491,-0.4947,-0.5012,-0.5048,-0.509,-0.5099,-0.511,-0.5105,-0.5097,-0.51,-0.5098,-0.5102,-0.511,-0.511,-0.511,-0.511,0,-0.457,-0.4586,-0.4622,-0.4664,-0.4693,-0.4728,-0.4763,-0.478,-0.4821,-0.4849,-0.4892,-0.492,-0.4975,-0.5018,-0.5064,-0.5091,-0.5108,-0.5112,-0.5118,-0.511,-0.5097,-0.5105,-0.5075,-0.5111,-0.5111,-0.5111,-0.5111,-0.5111,-0.4578,-0.4601,-0.4643,-0.4682,-0.4712,-0.4745,-0.4772,-0.4802,-0.4838,-0.4886,-0.4904,-0.4948,-0.499,-0.5053,-0.508,-0.5115,-0.5118,-0.5126,-0.5128,-0.513,-0.5129,-0.5091,-0.5124,-0.5124,-0.5124,-0.5124,-0.5124,0,-0.4597,-0.4625,-0.4661,-0.471,-0.4741,-0.4754,-0.4794,-0.482,-0.4858,-0.4895,-0.493,-0.498,-0.5022,-0.5062,-0.5106,-0.5127,-0.5136,-0.5137,-0.5136,-0.5142,-0.5124,-0.5115,-0.5129,-0.5129,-0.5129,-0.5129,-0.5129,-0.5129,-0.4611,-0.4652,-0.4672,-0.4729,-0.4757,-0.48,-0.4822,-0.4853,-0.4883,-0.4937,-0.4972,-0.4998,-0.5036,-0.5084,-0.5123,-0.5134,-0.515,-0.5149,-0.5162,-0.5144,-0.5143,-0.5143,-0.5134,-0.5152,-0.5152,-0.5178,-0.5178,-0.5178]}]]